Home > Time Zones > World Clock > Weather > India > Theni > Past weeks

Flag for India Weather past 2 weeks in Theni, Tamil Nadu, India

Now
81 °F

Partly sunny.


Feels Like: 85 °F
Forecast: 75 / 95 °F
Wind: 12 mph from Southwest

Location: Coimbatore / Peelamedu

Current Time: Jul 31, 2014 at 7:53:21 PM

Latest Report: Jul 31, 2014 at 5:30 PM


Visibility: 4 mi

Pressure: 29.77 "Hg

Humidity: 74%

Dew point: 72 °F

Location of TheniLocation

Historic Weather in Theni — Graph

°F

Theni temperature yesterday

Maximum temperature yesterday: 88 °F (at 12:00 PM)
Minimum temperature yesterday: 73 °F (at 4:30 AM)
Average temperature yesterday: 80 °F

Past Weeks' High & Low Weather Summary

 TemperatureHumidityPressure
High90 °F (Jul 26, 1:30 PM)100% (Jul 26, 3:30 AM)29.95 "Hg (Jul 26, 3:30 AM)
Low72 °F (Jul 24, 2:30 AM)46% (Jul 19, 11:00 AM)29.74 "Hg (Jul 17, 3:30 PM)
Average80 °F72%29.84 "Hg
* Reported Jul 16 6:00 PM — Jul 31 5:30 PM, Theni, Weather by CustomWeather, © 2014

Note: Actual official high and low records may vary slightly from our data, if they occured in-between our weather recording intervals... More about our weather records

Advertising

Theni weather history for previous 24 hours

 ConditionsComfort  
Time TempWeatherWind HumidityBarometerVisibility
5:30 PM
Jul 31
81 °FPartly sunny.12 mph74%29.77 "Hg4 mi
5:00 PM82 °FPartly sunny.15 mph66%29.77 "Hg4 mi
4:30 PM82 °FScattered clouds.12 mph66%29.77 "Hg4 mi
4:00 PM84 °FScattered clouds.12 mph62%29.77 "Hg4 mi
3:30 PM86 °FScattered clouds.18 mph55%29.77 "Hg4 mi
3:00 PM86 °FScattered clouds.12 mph59%29.77 "Hg4 mi
2:30 PM86 °FScattered clouds.14 mph59%29.80 "Hg4 mi
2:00 PM86 °FPassing clouds.14 mph55%29.80 "Hg4 mi
1:30 PM86 °FScattered clouds.16 mph52%29.80 "Hg4 mi
1:00 PM86 °FPartly sunny.16 mph52%29.80 "Hg4 mi
12:30 PM84 °FPartly sunny.13 mph58%29.83 "Hg4 mi
12:00 PM84 °FPartly sunny.12 mph66%29.83 "Hg4 mi
11:30 AM84 °FPartly sunny.14 mph66%29.83 "Hg4 mi
11:00 AM84 °FPartly sunny.14 mph58%29.86 "Hg4 mi
10:30 AM84 °FPartly sunny.12 mph58%29.86 "Hg4 mi
10:00 AM84 °FPartly sunny.12 mph62%29.86 "Hg4 mi
9:00 AM79 °FBroken clouds.12 mph79%29.86 "Hg3 mi
4:30 AM75 °FPartly cloudy.14 mph89%29.80 "Hg3 mi
4:00 AM75 °FPartly cloudy.13 mph89%29.80 "Hg3 mi
2:30 AM75 °FPartly cloudy.14 mph83%29.80 "Hg3 mi
12:30 AM77 °FPartly cloudy.10 mph79%29.83 "Hg3 mi
12:00 AM77 °FPartly cloudy.6 mph79%29.86 "Hg3 mi
11:30 PM
Jul 30
77 °FPartly cloudy.14 mph79%29.86 "Hg3 mi
11:00 PM77 °FPartly cloudy.10 mph74%29.86 "Hg3 mi
10:30 PM77 °FPartly cloudy.14 mph74%29.86 "Hg3 mi
10:00 PM75 °FPartly cloudy.12 mph83%29.86 "Hg3 mi
9:30 PM75 °FPartly cloudy.12 mph83%29.86 "Hg3 mi
9:00 PM77 °FWarm.8 mph79%29.86 "HgN/A
8:30 PM77 °FPartly cloudy.14 mph79%29.86 "Hg3 mi
7:30 PM77 °FPartly cloudy.12 mph69%29.86 "Hg4 mi
7:00 PM79 °FPartly sunny.14 mph74%29.83 "Hg4 mi
Weather by CustomWeather, © 2014

See weather overviewHow to use our weather pages